Hutchinson, KS

3:14 AM CDT on August 18, 2017 (GMT -0500)
Hutchinson Municipal

Weather History for KHUT - January, 2014

Change the Weather History Date:

Monday, January 27, 2014

  Actual Average Record
Temperature  
Mean Temperature 16 °F -  
Max Temperature 21 °F 40 °F 77 °F (2015)
Min Temperature 12 °F 19 °F 1 °F (1997)
Degree Days  
Heating Degree Days 48    
Moisture  
Dew Point -9 °F    
Average Humidity 33    
Maximum Humidity 43    
Minimum Humidity 21    
Precipitation  
Precipitation 0.00 in - - ()
Sea Level Pressure  
Sea Level Pressure 30.46 in    
Wind  
Wind Speed 15 mph (NNE)    
Max Wind Speed 24 mph    
Max Gust Speed 40 mph    
Visibility 10 miles    
Events      
Averages and records for this station are not official NWS values.
T = Trace of Precipitation, MM = Missing Value Source: NWS Daily Summary

Daily Weather History Graph

Daily Weather History Graph

Search for Another Location

Airport or City:

Trip Planner

Search our weather history database for the weather conditions in past years. The results will help you decide how hot, cold, wet, or windy it might be!

Date:

Astronomy

Jan. 27, 2014 Rise Set
Actual Time 7:39 AM CST 5:48 PM CST
Civil Twilight 7:11 AM CST 6:17 PM CST
Nautical Twilight 6:40 AM CST 6:48 PM CST
Astronomical Twilight 6:08 AM CST 7:19 PM CST
Moon 4:21 AM CST (1/27) 2:37 PM CST (1/27)
Length of Visible Light 11h 05m
Length of Day
10h 09m
Waning Crescent, 14% of the Moon is Illuminated
Jan 27
Waning Crescent
Jan 30
New
Feb 6
First Quarter
Feb 14
Full
Feb 22
Last Quarter

Hourly Weather History & Observations

Time (CST) Temp. Windchill Dew Point Humidity Pressure Visibility Wind Dir Wind Speed Gust Speed Precip Events Conditions
12:52 AM 21.0 °F 4.3 °F -14.1 °F 21% 30.28 in 10.0 mi North 24.2 mph 40.3 mph N/A   Overcast
2:52 AM 17.1 °F -0.6 °F -11.0 °F 28% 30.34 in 10.0 mi NNE 23.0 mph 32.2 mph N/A   Overcast
3:52 AM 17.1 °F 1.5 °F -8.0 °F 33% 30.38 in 10.0 mi North 17.3 mph 27.6 mph N/A   Overcast
4:52 AM 15.1 °F -0.6 °F -8.0 °F 36% 30.40 in 10.0 mi North 16.1 mph - N/A   Overcast
5:52 AM 14.0 °F -2.0 °F -8.0 °F 37% 30.42 in 10.0 mi North 16.1 mph 24.2 mph N/A   Overcast
6:52 AM 12.9 °F -0.2 °F -9.0 °F 37% 30.44 in 10.0 mi NNE 10.4 mph 21.9 mph N/A   Overcast
7:52 AM 12.0 °F -4.0 °F -11.0 °F 35% 30.48 in 10.0 mi North 15.0 mph 21.9 mph N/A   Mostly Cloudy
8:52 AM 12.0 °F -3.4 °F -9.9 °F 37% 30.50 in 10.0 mi NNE 13.8 mph 19.6 mph N/A   Partly Cloudy
9:52 AM 12.9 °F -0.9 °F -9.0 °F 37% 30.51 in 10.0 mi NNE 11.5 mph - N/A   Clear
10:52 AM 14.0 °F 0.5 °F -9.9 °F 34% 30.53 in 10.0 mi NNE 11.5 mph 20.7 mph N/A   Clear
11:52 AM 16.0 °F 2.3 °F -9.9 °F 31% 30.51 in 10.0 mi NNE 12.7 mph 23.0 mph N/A   Overcast
12:52 PM 16.0 °F 2.3 °F -9.9 °F 31% 30.48 in 10.0 mi NNE 12.7 mph 19.6 mph N/A   Overcast
1:52 PM 16.0 °F 3.6 °F -9.0 °F 32% 30.48 in 10.0 mi NNE 10.4 mph - N/A   Overcast
2:52 PM 17.1 °F 5.8 °F -9.0 °F 31% 30.46 in 10.0 mi North 9.2 mph - N/A   Overcast
3:52 PM 18.0 °F 6.9 °F -9.0 °F 30% 30.46 in 10.0 mi North 9.2 mph - N/A   Overcast
4:52 PM 17.1 °F 7.6 °F -9.9 °F 30% 30.47 in 10.0 mi NNE 6.9 mph - N/A   Overcast
5:52 PM 16.0 °F 6.3 °F -9.0 °F 32% 30.47 in 10.0 mi NE 6.9 mph - N/A   Overcast
6:52 PM 16.0 °F 7.4 °F -8.0 °F 34% 30.48 in 10.0 mi NNE 5.8 mph - N/A   Overcast
7:52 PM 16.0 °F 7.4 °F -9.0 °F 32% 30.48 in 10.0 mi NNE 5.8 mph - N/A   Overcast
8:52 PM 16.0 °F 8.8 °F -8.0 °F 34% 30.49 in 10.0 mi NNE 4.6 mph - N/A   Overcast
9:52 PM 16.0 °F 10.4 °F -7.1 °F 36% 30.51 in 10.0 mi NE 3.5 mph - N/A   Mostly Cloudy
10:52 PM 15.1 °F 6.4 °F -7.1 °F 37% 30.50 in 10.0 mi East 5.8 mph - N/A   Overcast
11:52 PM 14.0 °F 8.2 °F -5.1 °F 43% 30.51 in 10.0 mi ENE 3.5 mph - N/A   Clear